Time,TemperatureF,DewpointF,PressureIn,WindDirection,WindDirectionDegrees,WindSpeedMPH,WindSpeedGustMPH,Humidity,HourlyPrecipIn,Conditions,Clouds,dailyrainin,SoftwareType,DateUTC
2013-01-27 00:01:00,48.0,45.0,30.24,SSE,160,0.0,6.0,91,0.00,,,0.00,,2013-01-27 06:01:00,
2013-01-27 00:11:00,48.0,45.0,30.24,SSE,160,0.0,6.0,91,0.00,,,0.00,,2013-01-27 06:11:00,
2013-01-27 00:21:00,48.0,45.0,30.24,SSE,160,0.0,2.0,91,0.00,,,0.00,,2013-01-27 06:21:00,
2013-01-27 00:31:00,48.0,45.0,30.23,SSE,160,0.0,2.0,91,0.00,,,0.00,,2013-01-27 06:31:00,
2013-01-27 00:41:00,48.0,45.0,30.23,SSE,160,0.0,2.0,91,0.00,,,0.00,,2013-01-27 06:41:00,
2013-01-27 00:52:00,48.0,45.0,30.22,SSE,147,0.0,3.0,90,0.00,,,0.00,,2013-01-27 06:52:00,
2013-01-27 01:01:00,48.0,45.0,30.23,SE,143,0.0,3.0,90,0.00,,,0.00,,2013-01-27 07:01:00,
2013-01-27 01:13:00,48.0,45.0,30.23,SE,143,0.0,3.0,90,0.00,,,0.00,,2013-01-27 07:13:00,
2013-01-27 01:21:00,48.0,45.0,30.23,SE,144,0.0,3.0,90,0.00,,,0.00,,2013-01-27 07:21:00,
2013-01-27 01:31:00,49.0,46.0,30.23,SSE,165,0.0,3.0,89,0.00,,,0.00,,2013-01-27 07:31:00,
2013-01-27 01:41:00,49.0,46.0,30.23,SSE,165,0.0,3.0,89,0.00,,,0.00,,2013-01-27 07:41:00,
2013-01-27 01:52:00,48.0,45.0,30.23,SSE,165,0.0,3.0,89,0.00,,,0.00,,2013-01-27 07:52:00,
2013-01-27 02:01:00,48.0,45.0,30.23,SSE,160,0.0,3.0,89,0.00,,,0.00,,2013-01-27 08:01:00,
2013-01-27 02:11:00,48.0,45.0,30.23,SSE,160,0.0,3.0,89,0.00,,,0.00,,2013-01-27 08:11:00,
2013-01-27 02:22:00,48.0,45.0,30.23,SSE,160,0.0,3.0,89,0.00,,,0.00,,2013-01-27 08:22:00,
2013-01-27 02:31:00,48.0,45.0,30.23,ENE,57,0.0,3.0,89,0.00,,,0.00,,2013-01-27 08:31:00,
2013-01-27 02:42:00,48.0,45.0,30.23,ENE,57,0.0,3.0,89,0.00,,,0.00,,2013-01-27 08:42:00,
2013-01-27 02:52:00,47.0,44.0,30.23,ENE,57,0.0,3.0,90,0.00,,,0.00,,2013-01-27 08:52:00,
2013-01-27 03:02:00,47.0,45.0,30.22,ESE,109,1.0,3.0,91,0.00,,,0.00,,2013-01-27 09:02:00,
2013-01-27 03:11:00,47.0,45.0,30.22,ESE,109,1.0,3.0,91,0.00,,,0.00,,2013-01-27 09:11:00,
2013-01-27 03:21:00,48.0,45.0,30.22,ESE,117,1.0,4.0,90,0.00,,,0.00,,2013-01-27 09:21:00,
2013-01-27 03:32:00,49.0,46.0,30.22,South,182,0.0,4.0,90,0.00,,,0.00,,2013-01-27 09:32:00,
2013-01-27 03:41:00,49.0,46.0,30.22,South,182,0.0,4.0,90,0.00,,,0.00,,2013-01-27 09:41:00,
2013-01-27 03:52:00,49.0,46.0,30.21,SE,140,0.0,4.0,90,0.00,,,0.00,,2013-01-27 09:52:00,
2013-01-27 04:01:00,49.0,46.0,30.21,SE,143,1.0,4.0,89,0.00,,,0.00,,2013-01-27 10:01:00,
2013-01-27 04:11:00,49.0,46.0,30.21,SE,145,1.0,4.0,89,0.00,,,0.00,,2013-01-27 10:11:00,
2013-01-27 04:21:00,49.0,46.0,30.21,SE,145,1.0,4.0,89,0.00,,,0.00,,2013-01-27 10:21:00,
2013-01-27 04:31:00,49.0,46.0,30.22,South,171,1.0,5.0,88,0.00,,,0.00,,2013-01-27 10:31:00,
2013-01-27 04:41:00,49.0,46.0,30.22,South,171,1.0,5.0,88,0.00,,,0.00,,2013-01-27 10:41:00,
2013-01-27 04:51:00,49.0,46.0,30.21,ESE,114,0.0,5.0,88,0.00,,,0.00,,2013-01-27 10:51:00,
2013-01-27 05:01:00,49.0,46.0,30.21,SSE,162,0.0,5.0,88,0.00,,,0.00,,2013-01-27 11:01:00,
2013-01-27 05:11:00,49.0,46.0,30.21,SE,135,0.0,5.0,89,0.00,,,0.00,,2013-01-27 11:11:00,
2013-01-27 05:21:00,49.0,46.0,30.21,SE,135,0.0,5.0,89,0.00,,,0.00,,2013-01-27 11:21:00,
2013-01-27 05:32:00,49.0,46.0,30.22,SSE,154,1.0,5.0,89,0.00,,,0.00,,2013-01-27 11:32:00,
2013-01-27 05:42:00,49.0,46.0,30.22,SSE,154,1.0,5.0,89,0.00,,,0.00,,2013-01-27 11:42:00,
2013-01-27 05:52:00,49.0,46.0,30.22,South,188,0.0,5.0,90,0.00,,,0.00,,2013-01-27 11:52:00,
2013-01-27 06:02:00,49.0,46.0,30.22,SSE,147,2.0,6.0,91,0.00,,,0.00,,2013-01-27 12:02:00,
2013-01-27 06:11:00,49.0,46.0,30.22,SSE,147,2.0,6.0,91,0.00,,,0.00,,2013-01-27 12:11:00,
2013-01-27 06:21:00,50.0,47.0,30.23,SE,145,2.0,9.0,91,0.00,,,0.00,,2013-01-27 12:21:00,
2013-01-27 06:32:00,50.0,48.0,30.23,SSE,160,1.0,9.0,92,0.00,,,0.00,,2013-01-27 12:32:00,
2013-01-27 06:42:00,50.0,48.0,30.23,SSE,160,1.0,9.0,92,0.00,,,0.00,,2013-01-27 12:42:00,
2013-01-27 06:52:00,50.0,48.0,30.24,ESE,120,1.0,9.0,94,0.00,,,0.00,,2013-01-27 12:52:00,
2013-01-27 07:02:00,51.0,49.0,30.24,SSE,159,1.0,9.0,94,0.00,,,0.00,,2013-01-27 13:02:00,
2013-01-27 07:11:00,51.0,49.0,30.24,SSE,159,1.0,9.0,94,0.00,,,0.00,,2013-01-27 13:11:00,
2013-01-27 07:22:00,51.0,50.0,30.24,SSW,194,1.0,9.0,95,0.00,,,0.00,,2013-01-27 13:22:00,
2013-01-27 07:32:00,51.0,50.0,30.24,SSE,155,0.0,9.0,95,0.00,,,0.00,,2013-01-27 13:32:00,
2013-01-27 07:42:00,51.0,50.0,30.24,SE,145,1.0,9.0,96,0.00,,,0.00,,2013-01-27 13:42:00,
2013-01-27 07:52:00,51.0,50.0,30.24,SE,145,1.0,9.0,96,0.00,,,0.00,,2013-01-27 13:52:00,
2013-01-27 08:02:00,51.0,50.0,30.25,South,174,2.0,9.0,96,0.00,,,0.00,,2013-01-27 14:02:00,
2013-01-27 08:11:00,51.0,50.0,30.25,South,174,2.0,9.0,96,0.00,,,0.00,,2013-01-27 14:11:00,
2013-01-27 08:22:00,51.0,50.0,30.25,SSE,164,0.0,9.0,97,0.00,,,0.00,,2013-01-27 14:22:00,
2013-01-27 08:32:00,52.0,51.0,30.26,SSE,157,1.0,9.0,97,0.00,,,0.00,,2013-01-27 14:32:00,
2013-01-27 08:42:00,52.0,51.0,30.26,SSE,157,1.0,9.0,97,0.00,,,0.00,,2013-01-27 14:42:00,
2013-01-27 08:52:00,52.0,51.0,30.26,SSE,166,1.0,9.0,97,0.00,,,0.00,,2013-01-27 14:52:00,
2013-01-27 09:02:00,53.0,52.0,30.26,South,188,1.0,9.0,98,0.00,,,0.00,,2013-01-27 15:02:00,
2013-01-27 09:11:00,53.0,52.0,30.26,South,188,1.0,9.0,98,0.00,,,0.00,,2013-01-27 15:11:00,
2013-01-27 09:22:00,53.0,52.0,30.27,SE,145,0.0,9.0,98,0.00,,,0.00,,2013-01-27 15:22:00,
2013-01-27 09:32:00,54.0,53.0,30.27,SSW,199,2.0,9.0,98,0.00,,,0.00,,2013-01-27 15:32:00,
2013-01-27 09:42:00,54.0,53.0,30.27,SSW,199,2.0,9.0,98,0.00,,,0.00,,2013-01-27 15:42:00,
2013-01-27 09:53:00,54.0,53.0,30.27,South,177,0.0,9.0,98,0.00,,,0.00,,2013-01-27 15:53:00,
2013-01-27 10:02:00,55.0,54.0,30.27,SSE,148,1.0,9.0,97,0.00,,,0.00,,2013-01-27 16:02:00,
2013-01-27 10:11:00,55.0,54.0,30.27,SSE,148,1.0,9.0,97,0.00,,,0.00,,2013-01-27 16:11:00,
2013-01-27 10:21:00,56.0,55.0,30.27,SSE,154,1.0,9.0,96,0.00,,,0.00,,2013-01-27 16:21:00,
2013-01-27 10:32:00,58.0,57.0,30.27,South,183,0.0,9.0,95,0.00,,,0.00,,2013-01-27 16:32:00,
2013-01-27 10:42:00,58.0,57.0,30.27,South,183,0.0,9.0,95,0.00,,,0.00,,2013-01-27 16:42:00,
2013-01-27 10:53:00,60.0,57.0,30.27,South,180,1.0,9.0,90,0.00,,,0.00,,2013-01-27 16:53:00,
2013-01-27 11:01:00,61.0,57.0,30.27,WSW,240,3.0,9.0,88,0.00,,,0.00,,2013-01-27 17:01:00,
2013-01-27 11:12:00,61.0,57.0,30.27,WSW,240,3.0,9.0,88,0.00,,,0.00,,2013-01-27 17:12:00,
2013-01-27 11:22:00,62.0,57.0,30.27,SSW,200,2.0,9.0,85,0.00,,,0.00,,2013-01-27 17:22:00,
2013-01-27 11:32:00,64.0,58.0,30.26,SE,130,2.0,9.0,82,0.00,,,0.00,,2013-01-27 17:32:00,
2013-01-27 11:42:00,64.0,58.0,30.26,SE,130,2.0,9.0,82,0.00,,,0.00,,2013-01-27 17:42:00,
2013-01-27 11:52:00,64.0,58.0,30.26,SSE,150,2.0,9.0,80,0.00,,,0.00,,2013-01-27 17:52:00,
2013-01-27 12:02:00,66.0,59.0,30.24,South,182,1.0,9.0,78,0.00,,,0.00,,2013-01-27 18:02:00,
2013-01-27 12:11:00,66.0,59.0,30.24,South,182,1.0,9.0,78,0.00,,,0.00,,2013-01-27 18:11:00,
2013-01-27 12:22:00,67.0,59.0,30.24,SSW,202,1.0,9.0,76,0.00,,,0.00,,2013-01-27 18:22:00,
2013-01-27 12:32:00,69.0,59.0,30.22,SSW,202,5.0,9.0,71,0.00,,,0.00,,2013-01-27 18:32:00,
2013-01-27 12:42:00,69.0,59.0,30.22,SSW,202,5.0,9.0,71,0.00,,,0.00,,2013-01-27 18:42:00,
2013-01-27 12:52:00,70.0,59.0,30.22,WSW,243,5.0,10.0,68,0.00,,,0.00,,2013-01-27 18:52:00,
2013-01-27 13:02:00,69.0,58.0,30.20,SW,220,3.0,13.0,68,0.00,,,0.00,,2013-01-27 19:02:00,
2013-01-27 13:11:00,69.0,58.0,30.20,SW,220,3.0,13.0,68,0.00,,,0.00,,2013-01-27 19:11:00,
2013-01-27 13:22:00,70.0,58.0,30.19,SW,233,2.0,13.0,66,0.00,,,0.00,,2013-01-27 19:22:00,
2013-01-27 13:32:00,71.0,59.0,30.19,South,172,1.0,13.0,65,0.00,,,0.00,,2013-01-27 19:32:00,
2013-01-27 13:42:00,71.0,59.0,30.19,South,172,1.0,13.0,65,0.00,,,0.00,,2013-01-27 19:42:00,
2013-01-27 13:52:00,71.0,57.0,30.18,South,172,5.0,13.0,62,0.00,,,0.00,,2013-01-27 19:52:00,
2013-01-27 14:02:00,71.0,57.0,30.18,South,181,2.0,13.0,61,0.00,,,0.00,,2013-01-27 20:02:00,
2013-01-27 14:11:00,71.0,57.0,30.18,South,181,2.0,13.0,61,0.00,,,0.00,,2013-01-27 20:11:00,
2013-01-27 14:22:00,72.0,56.0,30.17,South,191,3.0,13.0,58,0.00,,,0.00,,2013-01-27 20:22:00,
2013-01-27 14:32:00,72.0,57.0,30.17,SE,139,3.0,13.0,59,0.00,,,0.00,,2013-01-27 20:32:00,
2013-01-27 14:42:00,72.0,57.0,30.17,SE,139,3.0,13.0,59,0.00,,,0.00,,2013-01-27 20:42:00,
2013-01-27 14:52:00,73.0,56.0,30.16,South,170,3.0,13.0,55,0.00,,,0.00,,2013-01-27 20:52:00,
2013-01-27 15:02:00,73.0,55.0,30.16,South,179,2.0,13.0,54,0.00,,,0.00,,2013-01-27 21:02:00,
2013-01-27 15:12:00,73.0,55.0,30.16,South,179,2.0,13.0,54,0.00,,,0.00,,2013-01-27 21:12:00,
2013-01-27 15:22:00,73.0,56.0,30.16,SSE,160,1.0,13.0,56,0.00,,,0.00,,2013-01-27 21:22:00,
2013-01-27 15:32:00,72.0,55.0,30.16,SSW,192,1.0,13.0,55,0.00,,,0.00,,2013-01-27 21:32:00,
2013-01-27 15:42:00,72.0,55.0,30.16,SSW,192,1.0,13.0,55,0.00,,,0.00,,2013-01-27 21:42:00,
2013-01-27 15:52:00,72.0,55.0,30.16,SSE,166,1.0,13.0,55,0.00,,,0.00,,2013-01-27 21:52:00,
2013-01-27 16:02:00,73.0,55.0,30.16,South,189,3.0,13.0,53,0.00,,,0.00,,2013-01-27 22:02:00,
2013-01-27 16:11:00,73.0,55.0,30.16,South,189,3.0,13.0,53,0.00,,,0.00,,2013-01-27 22:11:00,
2013-01-27 16:22:00,73.0,55.0,30.16,SSE,155,0.0,13.0,53,0.00,,,0.00,,2013-01-27 22:22:00,
2013-01-27 16:32:00,73.0,55.0,30.16,SSE,156,0.0,13.0,53,0.00,,,0.00,,2013-01-27 22:32:00,
2013-01-27 16:42:00,73.0,55.0,30.16,SSE,156,0.0,13.0,53,0.00,,,0.00,,2013-01-27 22:42:00,
2013-01-27 16:52:00,71.0,52.0,30.16,SSE,147,1.0,13.0,52,0.00,,,0.00,,2013-01-27 22:52:00,
2013-01-27 17:02:00,71.0,54.0,30.15,SSE,166,3.0,13.0,54,0.00,,,0.00,,2013-01-27 23:02:00,
2013-01-27 17:12:00,71.0,54.0,30.15,SSE,166,3.0,13.0,54,0.00,,,0.00,,2013-01-27 23:12:00,
2013-01-27 17:21:00,70.0,53.0,30.16,South,188,2.0,13.0,55,0.00,,,0.00,,2013-01-27 23:21:00,
2013-01-27 17:32:00,69.0,53.0,30.16,South,169,0.0,13.0,57,0.00,,,0.00,,2013-01-27 23:32:00,
2013-01-27 17:41:00,69.0,53.0,30.16,South,169,0.0,13.0,57,0.00,,,0.00,,2013-01-27 23:41:00,
2013-01-27 17:53:00,69.0,54.0,30.17,South,180,0.0,13.0,58,0.00,,,0.00,,2013-01-27 23:53:00,
2013-01-27 18:01:00,67.0,53.0,30.17,South,180,0.0,13.0,60,0.00,,,0.00,,2013-01-28 00:01:00,
2013-01-27 18:11:00,67.0,53.0,30.17,South,180,0.0,13.0,60,0.00,,,0.00,,2013-01-28 00:11:00,
2013-01-27 18:21:00,66.0,53.0,30.17,South,180,0.0,13.0,62,0.00,,,0.00,,2013-01-28 00:21:00,
2013-01-27 18:32:00,65.0,53.0,30.17,SE,136,1.0,13.0,64,0.00,,,0.00,,2013-01-28 00:32:00,
2013-01-27 18:42:00,65.0,53.0,30.17,SE,136,1.0,13.0,64,0.00,,,0.00,,2013-01-28 00:42:00,
2013-01-27 18:51:00,65.0,53.0,30.17,SE,136,0.0,13.0,65,0.00,,,0.00,,2013-01-28 00:51:00,
2013-01-27 19:01:00,64.0,53.0,30.18,SE,141,0.0,13.0,67,0.00,,,0.00,,2013-01-28 01:01:00,
2013-01-27 19:11:00,64.0,53.0,30.18,SE,141,0.0,13.0,67,0.00,,,0.00,,2013-01-28 01:11:00,
2013-01-27 19:22:00,64.0,53.0,30.18,South,171,1.0,13.0,68,0.00,,,0.00,,2013-01-28 01:22:00,
2013-01-27 19:32:00,63.0,53.0,30.18,East,96,1.0,13.0,69,0.00,,,0.00,,2013-01-28 01:32:00,
2013-01-27 19:42:00,63.0,53.0,30.18,East,96,1.0,13.0,69,0.00,,,0.00,,2013-01-28 01:42:00,
2013-01-27 19:52:00,63.0,53.0,30.18,SSE,157,1.0,13.0,69,0.00,,,0.00,,2013-01-28 01:52:00,
2013-01-27 20:02:00,63.0,53.0,30.18,SE,140,1.0,13.0,70,0.00,,,0.00,,2013-01-28 02:02:00,
2013-01-27 20:11:00,63.0,53.0,30.18,SE,140,1.0,13.0,70,0.00,,,0.00,,2013-01-28 02:11:00,
2013-01-27 20:22:00,63.0,53.0,30.19,SSE,155,0.0,13.0,71,0.00,,,0.00,,2013-01-28 02:22:00,
2013-01-27 20:32:00,62.0,52.0,30.19,South,185,0.0,13.0,71,0.00,,,0.00,,2013-01-28 02:32:00,
2013-01-27 20:42:00,62.0,52.0,30.19,South,185,0.0,13.0,71,0.00,,,0.00,,2013-01-28 02:42:00,
2013-01-27 20:52:00,62.0,52.0,30.19,ESE,114,2.0,13.0,71,0.00,,,0.00,,2013-01-28 02:52:00,
2013-01-27 21:02:00,62.0,52.0,30.19,SE,146,1.0,13.0,71,0.00,,,0.00,,2013-01-28 03:02:00,
2013-01-27 21:11:00,62.0,52.0,30.19,SE,146,1.0,13.0,71,0.00,,,0.00,,2013-01-28 03:11:00,
2013-01-27 21:21:00,61.0,52.0,30.19,SSW,211,2.0,13.0,72,0.00,,,0.00,,2013-01-28 03:21:00,
2013-01-27 21:32:00,62.0,53.0,30.19,ESE,109,1.0,13.0,72,0.00,,,0.00,,2013-01-28 03:32:00,
2013-01-27 21:41:00,62.0,53.0,30.19,ESE,109,1.0,13.0,72,0.00,,,0.00,,2013-01-28 03:41:00,
2013-01-27 21:53:00,62.0,53.0,30.20,SSW,203,1.0,13.0,72,0.00,,,0.00,,2013-01-28 03:53:00,
2013-01-27 22:01:00,61.0,52.0,30.20,SSE,164,1.0,13.0,73,0.00,,,0.00,,2013-01-28 04:01:00,
2013-01-27 22:11:00,61.0,52.0,30.20,SSE,164,1.0,13.0,73,0.00,,,0.00,,2013-01-28 04:11:00,
2013-01-27 22:21:00,61.0,53.0,30.20,South,183,1.0,13.0,74,0.00,,,0.00,,2013-01-28 04:21:00,
2013-01-27 22:32:00,60.0,52.0,30.19,SSE,159,1.0,13.0,76,0.00,,,0.00,,2013-01-28 04:32:00,
2013-01-27 22:41:00,60.0,52.0,30.19,SSE,159,1.0,13.0,76,0.00,,,0.00,,2013-01-28 04:41:00,
2013-01-27 22:52:00,60.0,53.0,30.19,SSW,193,3.0,13.0,77,0.00,,,0.00,,2013-01-28 04:52:00,
2013-01-27 23:03:00,60.0,53.0,30.19,South,170,0.0,13.0,77,0.00,,,0.00,,2013-01-28 05:03:00,
2013-01-27 23:11:00,60.0,53.0,30.19,South,170,0.0,13.0,77,0.00,,,0.00,,2013-01-28 05:11:00,
2013-01-27 23:21:00,61.0,54.0,30.18,SSE,154,3.0,13.0,78,0.00,,,0.00,,2013-01-28 05:21:00,
2013-01-27 23:31:00,61.0,54.0,30.18,SE,142,3.0,13.0,79,0.00,,,0.00,,2013-01-28 05:31:00,
2013-01-27 23:41:00,61.0,54.0,30.18,SE,142,3.0,13.0,79,0.00,,,0.00,,2013-01-28 05:41:00,
2013-01-27 23:52:00,60.0,54.0,30.18,South,178,2.0,13.0,80,0.00,,,0.00,,2013-01-28 05:52:00,